Longview, TX

1:07 PM CDT on April 25, 2017 (GMT -0500)
Gregg County

Weather History for KGGG - November, 2012

Change the Weather History Date:

Thursday, November 22, 2012

  Actual Average Record
Temperature  
Mean Temperature 61 °F 54 °F  
Max Temperature 77 °F 65 °F 85 °F (1967)
Min Temperature 45 °F 43 °F 26 °F (1903)
Degree Days  
Heating Degree Days 4 11  
Month to date heating degree days 160 177  
Since 1 July heating degree days 267 266  
Cooling Degree Days 0 0  
Month to date cooling degree days 28 22  
Year to date cooling degree days 2965 2417  
Growing Degree Days 10 (Base 50)    
Moisture  
Dew Point 49 °F    
Average Humidity 66    
Maximum Humidity 93    
Minimum Humidity 38    
Precipitation  
Precipitation 0.00 in 0.15 in 2.92 in (1961)
Month to date precipitation 0.68 3.24  
Year to date precipitation 33.81 41.81  
Snow  
Snow 0.00 in - - ()
Month to date snowfall 0.0  
Since 1 July snowfall 0.0  
Since 1 September snowfall 0.0  
Snow Depth 0.00 in    
Sea Level Pressure  
Sea Level Pressure 30.14 in    
Wind  
Wind Speed 6 mph (South)    
Max Wind Speed 20 mph    
Max Gust Speed 24 mph    
Visibility 10 miles    
Events      
T = Trace of Precipitation, MM = Missing Value Source: NWS Daily Summary

Daily Weather History Graph

Daily Weather History Graph

Search for Another Location

Airport or City:

Trip Planner

Search our weather history database for the weather conditions in past years. The results will help you decide how hot, cold, wet, or windy it might be!

Date:

Astronomy

Nov. 22, 2012 Rise Set
Actual Time 6:54 AM CST 5:15 PM CST
Civil Twilight 6:28 AM CST 5:41 PM CST
Nautical Twilight 5:58 AM CST 6:11 PM CST
Astronomical Twilight 5:29 AM CST 6:40 PM CST
Moon 1:45 PM CST (11/22) 1:32 AM CST (11/22)
Length of Visible Light 11h 12m
Length of Day
10h 20m
Waxing Gibbous, 71% of the Moon is Illuminated
Nov 22
Waxing Gibbous
Nov 28
Full
Dec 6
Last Quarter
Dec 13
New
Dec 19
First Quarter

Hourly Weather History & Observations

Time (CST) Temp. Dew Point Humidity Pressure Visibility Wind Dir Wind Speed Gust Speed Precip Events Conditions
12:53 AM 51.1 °F 44.1 °F 77% 30.16 in 10.0 mi Calm Calm - N/A   Clear
1:53 AM 52.0 °F 44.1 °F 74% 30.15 in 10.0 mi SSE 4.6 mph - N/A   Clear
2:53 AM 46.9 °F 44.1 °F 90% 30.14 in 10.0 mi Calm Calm - N/A   Clear
3:53 AM 46.9 °F 43.0 °F 86% 30.13 in 9.0 mi East 3.5 mph - N/A   Clear
4:53 AM 48.9 °F 43.0 °F 80% 30.15 in 10.0 mi SSE 4.6 mph - N/A   Clear
5:53 AM 46.9 °F 42.1 °F 83% 30.17 in 10.0 mi Calm Calm - N/A   Clear
6:53 AM 45.0 °F 42.1 °F 90% 30.19 in 10.0 mi Calm Calm - N/A   Clear
7:53 AM 51.1 °F 44.1 °F 77% 30.19 in 10.0 mi Calm Calm - N/A   Clear
8:53 AM 57.0 °F 46.0 °F 67% 30.20 in 10.0 mi South 5.8 mph - N/A   Clear
9:53 AM 64.9 °F 50.0 °F 58% 30.19 in 10.0 mi SSW 10.4 mph - N/A   Clear
10:53 AM 71.1 °F 54.0 °F 55% 30.18 in 10.0 mi South 11.5 mph - N/A   Clear
11:53 AM 75.0 °F 53.1 °F 46% 30.14 in 10.0 mi South 15.0 mph 18.4 mph N/A   Clear
12:53 PM 75.0 °F 50.0 °F 41% 30.12 in 10.0 mi SW 12.7 mph - N/A   Clear
1:53 PM 75.0 °F 48.0 °F 38% 30.09 in 10.0 mi South 10.4 mph 21.9 mph N/A   Clear
2:53 PM 73.9 °F 48.9 °F 41% 30.09 in 10.0 mi South 13.8 mph - N/A   Clear
3:53 PM 72.0 °F 50.0 °F 46% 30.09 in 10.0 mi South 12.7 mph - N/A   Clear
4:53 PM 69.1 °F 52.0 °F 54% 30.09 in 10.0 mi South 5.8 mph - N/A   Clear
5:53 PM 64.9 °F 53.1 °F 65% 30.09 in 10.0 mi South 3.5 mph - N/A   Clear
6:53 PM 63.0 °F 53.1 °F 70% 30.11 in 10.0 mi SSE 3.5 mph - N/A   Clear
7:53 PM 61.0 °F 53.1 °F 75% 30.12 in 10.0 mi Calm Calm - N/A   Clear
8:53 PM 57.0 °F 52.0 °F 83% 30.14 in 10.0 mi SSE 3.5 mph - N/A   Clear
9:53 PM 57.9 °F 53.1 °F 84% 30.14 in 10.0 mi SSE 3.5 mph - N/A   Clear
10:53 PM 61.0 °F 53.1 °F 75% 30.13 in 10.0 mi South 9.2 mph - N/A   Clear
11:53 PM 62.1 °F 54.0 °F 75% 30.13 in 10.0 mi South 8.1 mph - N/A   Mostly Cloudy